Regional Weather Roundup
Issued by NWS Jackson, KY

Home | Current Version | Previous Version | Text Only | Print | Product List | Glossary On
Versions: 1 2 3 4 5 6 7 8 9 10 11 12 13 14 15 16 17 18 19 20 21 22 23 24 25 26 27 28 29 30 31 32 33 34 35 36 37 38 39 40 41 42 43 44 45 46 47 48 49 50
000
ASUS43 KJKL 250910
RWRJKL

EAST KENTUCKY HOURLY WEATHER ROUNDUP
NATIONAL WEATHER SERVICE JACKSON KY
500 AM EDT SUN SEP 25 2016

NOTE: "FAIR" INDICATES FEW OR NO CLOUDS BELOW 12,000 FEET WITH
NO SIGNIFICANT WEATHER AND/OR OBSTRUCTIONS TO VISIBILITY.

* THESE REPORTS ARE NOT UNDER NWS QUALITY CONTROL AND MAY NOT
  REPORT WEATHER SUCH AS PRECIPITATION AND FOG.

KYZ079-080-083-085-087-088-110-112-115-119-120-251000
...EASTERN KENTUCKY...

CITY           SKY/WX    TMP DP  RH WIND       PRES   REMARKS
JACKSON        CLEAR     68  63  84 CALM      30.12F
LONDON         CLEAR     64  61  90 CALM      30.10F FOG
SOMERSET*      CLEAR     63  63 100 CALM      30.10F
MONTICELLO*    FOG       59  59 100 CALM      30.11F VSB 3/4
WILLIAMSBURG*  SUNNY     63  63 100 CALM      30.11S
MIDDLESBORO*   PTCLDY    61  61 100 CALM      30.13S
HARLAN APT*    CLOUDY    63  61  94 CALM      30.14S
PIKE CO APT*     N/A     66  66  99 NE3       30.13S
MOREHEAD APT*  CLOUDY    66  61  82 NE3       30.14S
ASHLAND*       PTCLDY    64  59  82 CALM      30.12R
$$

KYZ035-036-041-042-044-050-067-078-099-251000
...CENTRAL KENTUCKY...

CITY           SKY/WX    TMP DP  RH WIND       PRES   REMARKS
MT STERLING*   CLEAR     66  64  94 E3        30.14S
FLEMING/MASON* CLEAR     64  62  92 NE6       30.15S
DANVILLE*      CLEAR     63  63 100 CALM      30.12S FOG
LEXINGTON      CLEAR     68  63  84 NE7       30.11F
FRANKFORT      CLEAR     70  64  81 NE3       30.10F
LOUISVILLE     CLEAR     72  67  84 N5        30.08F
LEBANON*         N/A     66  66 100 CALM      30.10S FOG
GLASGOW*       CLEAR    N/A N/A N/A CALM      30.08S FOG
BOWLING GREEN  CLEAR     67  65  93 CALM      30.08S FOG
$$

KYZ091>093-OHZ055-061-077-WVZ005-015-034-035-042-251000
...SOUTHERN OHIO/WEST VIRGINIA...

CITY           SKY/WX    TMP DP  RH WIND       PRES   REMARKS
COVINGTON      CLEAR     66  62  87 E7        30.13S
COLUMBUS       CLEAR     57  53  86 N5        30.16F
DAYTON         CLEAR     58  53  84 E7        30.16F
WILMINGTON     CLEAR     58  55  90 NE6       30.15S
HUNTINGTON     CLEAR     66  60  81 NE5       30.12S
CHARLESTON     FOG       63  62  97 NE3       30.13R VSB 1/4
PINEVILLE*       N/A     61  58  90 MISG      30.20S FOG
BECKLEY        CLEAR     61  59  93 CALM      30.18S FOG
BLUEFIELD      CLEAR     64  59  83 CALM      30.20S
LOGAN CO APT*    N/A     66  64  94 CALM      30.13S
$$

VAZ002-007-008-TNZ017-027-036-066-071-251000
...SOUTHWEST VIRGINIA/EAST TENNESSEE...

CITY           SKY/WX    TMP DP  RH WIND       PRES   REMARKS
WISE*          CLEAR     66  61  82 CALM      30.20S
JONESVILLE*      N/A     59  59 100 CALM      30.14F
ABINGDON*      CLEAR     64  61  90 CALM      30.16S
BRISTOL        CLEAR     61  60  97 CALM      30.13S
MORRISTOWN*    SUNNY     68  64  88 CALM      30.10R
SEVIERVILLE*   SUNNY     63  61  94 CALM      30.09S
KNOXVILLE      CLEAR     66  63  90 CALM      30.07S
OAK RIDGE      CLEAR     68  65  90 CALM      30.09F
CROSSVILLE     CLEAR     62  61  96 CALM      30.13F
NASHVILLE      CLEAR     67  64  90 CALM      30.08S FOG
$$

...KEY TO REMARKS...
VSB - VISIBILITY IN MILES
WCI - WIND CHILL INDEX
HX  - HEAT INDEX

$$



USA.gov is the U.S. government's official web portal to all federal, state and local government web resources and services.